FW9692 Weather Reports


time (UTC)temp
F
wind
direction
speed
knots
gust
knots
rain 1hr
in
rain 24hr
in
rain mn
in
humidity
%
barometer
mb
20260831064537 83 149 17.4 25.2 0.00 0.00 0.00 47 999.3
20260831063036 84 146 19.1 23.5 0.00 0.00 0.00 47 999.2
20260831061535 84 151 20.0 26.9 0.00 0.00 0.00 46 999.2
20260831060044 84 155 20.9 25.2 0.00 0.00 0.00 46 999.2
20260831054535 85 146 20.9 28.7 0.00 0.00 0.00 45 999.1
20260831053035 85 153 20.9 30.4 0.00 0.00 0.00 45 999.1
20260831051548 86 144 26.1 33.0 0.00 0.00 0.00 44 999.1
20260831050036 86 144 25.2 37.4 0.00 0.00 0.00 43 999.1
20260831044535 87 146 25.2 33.9 0.00 0.00 0.00 41 999.1
20260831043031 87 147 22.6 29.5 0.00 0.00 0.00 38 999.0
20260831041535 88 144 20.9 29.5 0.00 0.00 0.00 37 999.0
20260831040042 89 139 20.0 31.3 0.00 0.00 0.00 35 998.8
20260831034530 89 146 22.6 31.3 0.00 0.00 0.00 35 998.6
20260831033032 90 137 22.6 29.5 0.00 0.00 0.00 34 998.5
20260831031527 91 128 21.7 28.7 0.00 0.00 0.00 33 998.2
20260831030029 91 140 21.7 26.9 0.00 0.00 0.00 33 998.0
20260831024527 92 134 20.0 25.2 0.00 0.00 0.00 33 997.7
20260831023036 93 128 18.2 22.6 0.00 0.00 0.00 33 997.6
20260831021546 93 137 19.1 25.2 0.00 0.00 0.00 32 997.3
20260831020028 94 126 13.9 19.1 0.00 0.00 0.00 27 997.2
20260831014527 95 142 9.6 13.9 0.00 0.00 0.00 24 997.0
20260831013025 95 130 12.2 17.4 0.00 0.00 0.00 24 996.9
20260831011531 96 137 10.4 16.5 0.00 0.00 0.00 23 996.9
20260831010044 96 132 10.4 16.5 0.00 0.00 0.00 23 996.7
20260831004525 97 134 12.2 17.4 0.00 0.00 0.00 23 996.7
20260831003030 97 90 11.3 16.5 0.00 0.00 0.00 24 996.5
20260831001548 97 113 7.8 15.6 0.00 0.00 0.00 24 996.5
20260831000029 98 107 11.3 20.0 0.00 0.00 0.00 24 996.4
20260830234523 98 124 5.2 10.4 0.00 0.00 0.00 21 996.5
20260830233028 98 129 4.3 11.3 0.00 0.00 0.00 21 996.6
20260830231531 99 138 12.2 17.4 0.00 0.00 0.00 21 996.6
20260830230019 99 51 4.3 11.3 0.00 0.00 0.00 21 996.7
20260830224544 98 81 5.2 10.4 0.00 0.00 0.00 21 996.8
20260830223022 98 111 4.3 9.6 0.00 0.00 0.00 22 997.0
20260830221518 98 83 11.3 16.5 0.00 0.00 0.00 22 997.0
20260830220024 98 39 3.5 9.6 0.00 0.00 0.00 22 997.2
20260830214541 97 9 6.1 13.0 0.00 0.00 0.00 23 997.3
20260830213035 97 25 9.6 15.6 0.00 0.00 0.00 22 997.5
20260830203116 97 196 4.3 9.6 0.00 0.00 0.00 25 998.6
20260830201558 96 306 8.7 13.0 0.00 0.00 0.00 25 998.9
20260830200059 97 41 2.6 9.6 0.00 0.00 0.00 26 999.1
20260830194551 96 325 4.3 8.7 0.00 0.00 0.00 29 999.4
20260830193048 96 83 3.5 12.2 0.00 0.00 0.00 29 999.6
20260830191508 95 83 6.1 13.9 0.00 0.00 0.00 30 999.8
20260830181539 93 198 5.2 7.8 0.00 0.00 0.00 33 1000.8
20260830180047 92 131 4.3 10.4 0.00 0.00 0.00 34 1001.0
20260830174531 91 195 5.2 9.6 0.00 0.00 0.00 35 1001.2
20260830173051 91 171 5.2 9.6 0.00 0.00 0.00 36 1001.3
20260830171530 90 234 1.7 7.0 0.00 0.00 0.00 37 1001.4
20260830170032 90 202 7.8 12.2 0.00 0.00 0.00 37 1001.6
20260830164518 90 221 0.9 8.7 0.00 0.00 0.00 38 1001.9
20260830163016 90 142 4.3 7.0 0.00 0.00 0.00 40 1001.9
20260830161512 88 38 3.5 9.6 0.00 0.00 0.00 41 1001.9
20260830160010 88 57 2.6 8.7 0.00 0.00 0.00 42 1001.9
20260830154510 87 36 3.5 7.0 0.00 0.00 0.00 43 1001.9
20260830153005 86 126 1.7 7.0 0.00 0.00 0.00 45 1001.9
20260830151504 85 338 1.7 3.5 0.00 0.00 0.00 46 1001.8
20260830150003 84 9 0.9 2.6 0.00 0.00 0.00 47 1001.7
20260830144558 83 265 0.0 1.7 0.00 0.00 0.00 49 1001.8
20260830143103 82 185 1.7 4.3 0.00 0.00 0.00 50 1001.9
20260830141552 79 93 0.9 4.3 0.00 0.00 0.00 53 1001.9
20260830140101 78 182 3.5 6.1 0.00 0.00 0.00 55 1001.9
20260830134552 77 121 5.2 8.7 0.00 0.00 0.00 56 1001.7
20260830133048 76 139 5.2 8.7 0.00 0.00 0.00 57 1001.7
20260830131523 75 126 6.1 9.6 0.00 0.00 0.00 59 1001.6
20260830130011 75 126 5.2 6.1 0.00 0.00 0.00 59 1001.4
20260830124509 74 117 5.2 7.8 0.00 0.00 0.00 59 1001.2
20260830123007 74 117 3.5 6.1 0.00 0.00 0.00 59 1001.1
20260830121539 75 113 3.5 7.0 0.00 0.00 0.00 58 1001.0
20260830120039 75 103 3.5 6.1 0.00 0.00 0.00 58 1000.9
20260830114547 76 117 3.5 6.1 0.00 0.00 0.00 57 1000.7
20260830113039 76 111 2.6 6.1 0.00 0.00 0.00 56 1000.8
20260830111535 76 113 1.7 5.2 0.00 0.00 0.00 56 1000.8
20260830110041 76 126 1.7 3.5 0.00 0.00 0.00 57 1000.8
20260830104533 76 227 1.7 8.7 0.00 0.00 0.00 57 1001.2
20260830103031 77 130 6.1 10.4 0.00 0.00 0.00 56 1000.8
20260830101529 77 133 8.7 11.3 0.00 0.00 0.00 55 1000.6
20260830100028 78 140 10.4 13.0 0.00 0.00 0.00 55 1000.4
20260830094527 78 137 10.4 13.0 0.00 0.00 0.00 55 1000.4
20260830093023 78 138 11.3 13.0 0.00 0.00 0.00 54 1000.3
20260830091549 78 146 10.4 13.0 0.00 0.00 0.00 54 1000.3
20260830081512 80 138 12.2 15.6 0.00 0.00 0.00 52 1000.5
20260830080011 80 144 12.2 14.8 0.00 0.00 0.00 52 1000.7
20260830074519 81 142 13.0 16.5 0.00 0.00 0.00 51 1000.7
20260830073010 81 146 13.9 19.1 0.00 0.00 0.00 50 1000.8
20260830071515 81 149 13.0 17.4 0.00 0.00 0.00 50 1000.8
20260830070018 82 147 13.0 17.4 0.00 0.00 0.00 49 1000.8